Location: Kenockee Observatory
(43.0173°N, 82.7297°W)
Time: 12:19:50
(UTC-05:00)

Daily predictions for brighter satellites

Satellite Brightness Start Highest point End
(mag) Time Altitude Azimuth Time Altitude Azimuth Time Altitude Azimuth
Nadezhda 1 Rocket 3.9 18:31:37 10° N 18:37:44 80° E 18:43:48 10° S
Cosmos 1461 3.0 18:39:23 10° NW 18:43:23 76° WSW 18:47:29 10° SSE
DELTA 2 R/B (1) 4.2 18:38:37 10° W 18:44:06 55° S 18:49:33 10° ESE
Cosmos 1140 Rocket 4.2 18:41:55 10° SSE 18:46:25 32° E 18:50:57 10° NE
Resurs 01 Rocket 2.7 18:46:52 10° ESE 18:50:22 24° ENE 18:53:52 10° NNE
Cosmos 1300 Rocket 4.3 18:47:19 10° SSE 18:51:14 32° E 18:55:11 10° NNE
Cosmos 2292 Rocket 4.4 18:49:06 10° S 18:54:14 62° E 19:01:09 10° NNE
Cosmos 1190 Rocket 4.2 18:49:06 10° SSW 18:54:17 79° WNW 18:59:31 10° NNE
Thor Agena Rocket 4.5 18:49:37 10° N 18:54:31 51° WNW 18:59:23 10° SW
COSMO-SKYMED 1 2.9 18:50:58 10° N 18:55:19 72° WNW 18:59:38 10° SSW
Cosmos 1833 4.4 18:50:41 10° S 18:56:10 51° ESE 19:01:38 10° NE
DMSP B5D1-3 4.5 18:51:08 10° NNE 18:56:18 78° ESE 19:01:27 10° S
Cosmos 2181 Rocket 4.2 18:51:36 10° N 18:57:40 51° ENE 19:03:47 10° SSE
ALOS 2.8 18:53:58 10° SE 18:58:15 37° ENE 19:02:33 10° N
Cosmos 2333 Rocket 3.8 18:57:43 10° N 19:01:19 17° NE 19:04:11 12° ENE
Spot 2 Rocket 4.1 18:58:13 10° SE 19:02:43 33° ENE 19:07:14 10° N
SL-16 R/B 3.1 18:57:52 10° NNW 19:03:24 54° WSW 19:08:53 10° S
FREGAT/IRIS 2.6 19:02:46 10° SSE 19:05:47 60° ENE 19:08:51 10° N
Cosmos 1340 2.6 19:02:24 10° N 19:06:11 63° ENE 19:09:56 10° SSE
Helios 1A 4.4 19:04:17 13° E 19:06:29 18° ENE 19:09:19 10° NNE
Resurs 1-3 4.4 19:04:23 10° SE 19:08:11 29° ENE 19:11:59 10° N
Cosmos 1709 Rocket 3.9 19:07:21 10° S 19:13:34 77° E 19:19:44 10° N
Helios 1B rocket 3.8 19:18:13 18° E 19:18:13 18° E 19:20:48 10° SE
Envisat 4.5 19:18:30 16° ENE 19:19:20 17° ENE 19:22:30 10° NNE
Cosmos 2322 Rocket 3.8 19:14:33 10° NW 19:19:43 38° WSW 19:24:51 10° S
FengYun 1-2 T 4.2 19:14:56 10° SSE 19:20:19 61° ENE 19:25:45 10° N
Cosmos 1954 Rocket 3.9 19:15:49 10° SSW 19:21:00 86° ESE 19:26:17 10° NNE
HJ-1C 3.4 19:19:37 10° SSE 19:22:56 60° ENE 19:26:17 10° N
Tiangong 2 3.5 19:21:29 10° WSW 19:23:40 18° SSW 19:25:50 10° SSE
SJ-6B 2.9 19:20:18 10° S 19:24:19 80° WSW 19:28:16 10° NNW
Cosmos 2151 Rocket 4.5 19:20:39 10° SSW 19:25:03 53° W 19:29:31 10° N
Genesis I 3.5 19:22:01 10° NNW 19:25:51 48° NE 19:28:05 22° ESE
Okean 1 Rocket 3.1 19:21:33 10° S 19:25:57 57° E 19:30:21 10° NNE
Meteor 1-19 Rocket 4.2 19:22:19 10° N 19:28:01 80° E 19:33:48 10° SSE
FENGYUN 3A 3.6 19:22:45 10° SSE 19:28:08 72° ENE 19:33:33 10° N
TSX-5 3.9 19:25:42 10° SW 19:28:48 55° WNW 19:32:03 10° NNE
NOSS 8 (F) 4.4 19:27:58 10° SSW 19:31:27 67° ESE 19:33:49 20° NE
SAR-Lupe-4 4.2 19:30:26 27° ESE 19:31:34 34° ENE 19:34:50 10° N
Gbstr 26 Del rocket 2.6 19:31:32 10° SW 19:35:18 63° SE 19:36:53 31° ENE
Cosmos 2322 3.8 19:30:28 10° NNW 19:36:13 84° WSW 19:41:55 10° SSE
Cosmos 1238 Rocket 2.7 19:34:21 10° NNW 19:37:18 58° W 19:40:13 10° S
Cosmos 2285 Rocket 4.2 19:37:20 10° N 19:43:35 49° ENE 19:47:50 20° SE
Cosmos 1025 Rocket 3.1 19:40:35 10° N 19:44:54 55° E 19:48:41 13° SSE
GEOS 3 Rocket 3.6 19:39:42 10° NE 19:44:55 70° SE 19:50:11 10° SSW
CZ-2D R/B 3.2 19:43:32 24° SE 19:45:35 55° ENE 19:49:20 10° N
GPS 2-04 Rocket1 4.4 19:42:22 10° SW 19:45:43 22° SSE 19:46:29 21° SSE
Cosmos 405 Rocket 4.1 19:42:28 10° NNE 19:45:01 25° NE 19:45:01 25° NE
H-2A R/B 2.5 19:47:08 10° SSE 19:50:50 87° ENE 19:54:36 10° NNW
Okean 1-7 Rocket 3.5 19:46:35 10° N 19:51:09 87° E 19:55:38 10° S
COSMOS 2428 2.6 19:45:53 10° NNW 19:51:35 71° ENE 19:55:38 20° SE
Cosmos 1536 2.7 19:47:36 10° S 19:51:35 89° WNW 19:55:36 10° N
Meteor 1-23 Rocket 4.2 19:45:57 10° N 19:51:47 74° E 19:57:31 10° SSE
Cosmos 2237 4.2 19:46:05 10° NNW 19:51:52 88° ENE 19:57:28 11° SSE
Cosmos 2333 4.2 19:47:15 10° NNW 19:52:57 64° ENE 19:56:21 25° SE
SL-19 R/B 4.4 19:47:44 10° SSE 19:53:24 82° WSW 19:59:29 10° NNW
Meteor 2-4 Rocket 3.6 19:48:33 10° N 19:54:08 87° W 19:59:33 10° S
Cosmos 2237 Rocket 3.1 19:50:36 10° N 19:55:30 28° NE 19:55:53 28° ENE
Cosmos 1633 4.3 19:52:42 10° SW 19:56:07 35° WNW 19:59:33 10° N
SL-08 ROCKET BODY 4.4 19:52:33 10° S 19:58:43 83° E 20:04:56 10° N
Cosmos 1741 Rocket 4.0 19:59:18 10° SSW 20:04:31 84° WNW 20:09:47 10° NNE
NOSS 0 Rocket 4.2 20:01:13 10° NNW 20:07:09 47° ENE 20:08:24 42° E
Cosmos 2360 Rocket 3.6 20:05:21 10° NW 20:10:33 39° WSW 20:15:44 10° S
Cosmos 2219 Rocket 2.2 20:07:03 10° NNW 20:12:35 59° ENE 20:13:35 51° ESE
Cosmos 2219 3.2 20:07:11 10° SSW 20:12:56 90° WNW 20:18:44 10° NNE
BREEZE-M DEB (TANK) 4.2 20:22:06 10° WSW 20:23:47 25° WSW 20:23:47 25° WSW
Resurs 01 Rocket 3.2 20:22:39 10° SSW 20:26:39 34° W 20:30:42 10° NNW
SL-16 R/B 3.8 20:24:22 10° N 20:27:19 21° NNE 20:27:19 21° NNE
BREEZE-M DEB (TANK) 3.9 20:29:21 10° WNW 20:33:00 77° SSW 20:35:01 48° SE
ATLAS CENTAUR R/B 4.2 20:30:11 10° SSW 20:30:46 13° SSW 20:30:46 13° SSW
Cosmos 1610 Rocket 4.4 20:27:14 10° S 20:33:28 87° W 20:39:41 10° N
Cosmos 468 Rocket 3.9 20:34:32 10° NNW 20:39:27 78° N 20:39:27 78° N
Helios 1A 4.1 20:40:55 37° SW 20:41:45 41° W 20:45:43 10° NNW
Cosmos 2333 Rocket 2.1 20:40:40 10° NNW 20:46:14 83° N 20:46:14 83° N
USA 229 DEB 4.0 20:45:18 10° NW 20:52:22 65° WSW 20:54:32 45° S
USA 229 4.0 20:45:24 10° NW 20:52:28 65° WSW 20:54:36 46° S
Helios 1B rocket 4.1 20:49:28 10° N 20:54:33 30° WSW 20:57:10 10° SW
Cosmos 1980 4.0 20:48:32 10° NNW 20:53:09 60° N 20:53:09 60° N
Envisat 3.5 20:58:42 55° NW 20:58:42 55° NW 21:02:52 10° NNW
ERS-1 Rocket 4.5 21:05:24 29° NNW 21:05:24 29° NNW 21:07:51 10° NNW
NOSS 3-1 (A) 4.0 20:57:43 10° NNW 21:04:58 63° NE 21:04:58 63° NE
ATLAS 2AS CENTAUR R/B 4.1 21:03:39 10° NNW 21:10:18 30° NNE 21:10:18 30° NNE
NOSS 3-1 (C) 4.0 21:17:12 10° NW 21:24:22 81° WNW 21:24:22 81° WNW
Cosmos 2237 Rocket 3.7 21:34:20 10° NW 21:37:45 33° WNW 21:37:45 33° WNW
Cosmos 2219 Rocket 4.4 21:52:03 10° NW 21:55:22 20° W 21:55:22 20° W
